Wind_Speed
12 12 12 11 11 11 10 10 10 10 9 9 9 9 8 8 7 7 6 6 5 5 4 4 4 4 3 2 3 3 3 3 4 4 5 5 6 6 7 7 8 8 8
14 14 13 13 13 12 12 12 12 11 11 11 10 10 9 9 9 8 7 7 7 6 6 6 5 5 5 4 4 4 4 4 5 5 6 6 7 7 8 9 9 9 9
16 16 16 15 14 14 14 14 14 13 13 13 12 12 11 10 10 9 8 8 8 8 7 7 7 6 6 6 5 5 5 6 6 6 7 7 8 9 9 10 10 10 11
19 18 18 18 17 16 16 16 16 15 15 15 14 14 13 12 11 11 10 10 10 10 9 9 8 8 8 8 8 7 7 8 8 8 8 9 9 10 10 11 11 12 12
21 20 20 20 20 19 18 18 18 17 17 17 16 16 15 14 13 13 12 12 11 11 10 10 10 10 10 9 9 9 10 10 10 10 10 10 11 11 11 12 12 13 13
23 23 22 22 22 21 21 20 20 19 19 19 18 18 17 16 15 15 14 14 13 13 12 12 12 11 11 11 11 12 12 12 12 12 12 12 12 12 13 13 14 15 15
25 25 25 24 23 23 23 22 22 21 21 21 20 20 19 18 17 16 16 15 15 14 14 13 13 13 13 13 13 13 14 13 14 14 14 13 14 14 14 15 16 17 17
27 26 26 26 26 25 25 24 24 24 23 23 22 22 21 20 19 19 18 17 17 16 16 15 15 15 15 15 15 16 16 16 16 16 16 15 15 15 16 17 18 18 19
29 28 28 28 28 28 28 27 26 26 26 25 25 24 23 22 21 21 20 20 19 19 18 18 17 17 17 17 17 18 17 17 18 18 17 17 17 17 18 18 19 20 20
30 30 30 30 30 30 30 29 29 28 28 28 27 26 25 24 24 23 23 22 21 21 21 20 19 19 19 19 19 19 19 19 19 19 19 19 19 19 20 20 20 21 22
32 31 31 32 32 32 32 31 30 30 30 29 29 29 28 27 26 25 25 25 24 23 23 22 21 21 20 20 20 21 21 20 20 21 21 21 21 21 21 21 22 22 23
34 33 33 33 33 33 33 33 32 31 32 31 31 30 30 29 28 27 27 27 26 26 26 25 24 24 23 22 22 22 22 22 22 22 22 22 23 23 23 23 23 24 25
35 35 34 34 34 34 34 34 33 33 32 32 31 31 31 30 29 28 27 27 27 27 27 27 26 26 25 24 24 24 24 23 23 23 24 24 25 25 25 25 25 26 26
36 35 35 34 34 34 34 34 34 34 32 32 31 31 31 30 30 29 29 29 28 28 28 28 28 28 27 26 26 25 25 25 25 25 26 26 27 27 27 27 27 27 28
38 37 37 36 35 35 35 35 35 34 33 33 32 32 32 32 31 31 30 30 30 30 30 30 30 29 29 28 28 27 27 27 27 27 27 28 29 28 28 29 28 29 29
40 40 39 38 37 36 35 35 35 34 33 34 33 33 33 33 33 32 31 31 31 31 31 31 31 31 31 30 30 29 29 28 28 28 28 29 29 29 29 30 30 31 31
42 42 40 40 39 38 36 36 36 35 35 35 34 34 33 33 33 33 33 33 33 33 33 32 32 32 32 32 32 31 31 30 29 29 29 30 30 31 30 31 31 32 33
43 43 42 41 40 40 39 37 37 37 36 36 36 36 35 35 34 35 34 34 34 34 34 34 34 33 33 33 33 33 33 32 32 31 31 31 32 32 32 32 33 34 35
44 44 43 43 42 42 41 40 39 39 38 37 37 37 37 37 36 36 36 35 35 35 35 35 35 35 34 34 34 35 34 34 33 33 33 33 33 33 34 34 35 36 37
43 44 44 44 43 43 43 43 41 40 40 39 38 38 38 38 37 37 37 37 36 36 35 36 36 36 36 36 36 36 36 35 35 34 34 35 35 36 36 36 37 38 39
42 43 44 44 45 45 44 44 43 42 42 41 40 40 38 38 38 38 37 37 38 37 37 37 37 38 38 38 37 37 37 37 37 36 36 36 37 38 38 39 40 40 41
42 43 43 43 45 45 45 45 44 43 43 42 41 40 40 39 39 38 38 38 38 39 39 38 38 38 39 39 39 39 39 39 39 39 39 39 39 40 40 41 41 42 42
42 43 42 43 44 45 45 45 44 43 43 43 43 41 40 40 40 39 39 40 40 39 39 39 39 38 39 40 40 40 40 40 41 40 41 41 41 41 42 42 42 42 42
42 42 42 42 43 44 45 45 44 44 43 43 43 42 41 40 41 40 41 40 41 40 40 40 40 40 40 41 41 41 42 42 42 42 42 42 42 43 44 43 43 42 43
41 42 42 42 42 43 44 44 44 44 43 43 43 42 41 40 41 41 41 41 41 41 41 41 41 41 42 42 42 43 43 44 44 44 43 44 44 44 45 44 44 44 45
40 42 43 42 42 42 42 43 43 44 44 44 43 42 41 41 41 42 42 41 41 41 40 40 40 41 42 42 43 44 45 45 45 45 45 44 45 45 45 44 44 45 45
Wind_Direction
236 235 236 239 241 241 240 239 241 242 245 250 255 256 254 254 253 252 252 250 248 244 240 239 245 252 262 277 292 307 316 320 324 327 329 331 332 333 333 332 331 329 327
240 238 239 240 242 243 243 243 242 244 246 249 252 254 255 254 252 251 250 247 247 245 243 244 249 257 268 276 285 294 300 307 311 311 315 317 319 322 323 323 324 321 318
243 242 242 243 244 246 246 246 246 245 246 248 250 252 253 252 251 249 249 247 246 246 249 251 254 260 266 272 278 285 296 299 301 304 307 308 310 313 316 316 317 316 313
244 244 243 244 246 247 247 247 247 246 246 247 249 250 251 250 249 249 248 247 247 249 251 254 257 261 265 271 277 281 285 294 294 296 300 301 304 306 308 309 311 310 309
245 247 247 246 246 247 248 248 248 247 247 248 249 250 250 250 251 250 248 247 247 249 252 256 259 261 264 269 273 277 281 287 293 293 295 297 300 301 303 306 308 307 306
245 246 248 248 248 248 247 248 249 248 247 248 248 249 249 251 251 249 248 248 247 249 254 259 261 262 264 268 272 274 277 282 288 291 292 294 297 299 301 302 304 304 303
246 247 248 248 249 249 248 248 248 249 248 247 248 249 248 249 250 249 247 247 248 251 254 258 263 265 267 269 271 273 274 279 285 288 288 290 294 297 299 300 301 302 303
249 249 249 249 250 251 250 249 248 248 249 250 249 249 248 248 248 248 248 247 249 252 255 259 263 266 268 270 271 273 275 279 283 287 288 289 291 294 296 298 300 301 302
252 251 250 250 251 251 251 251 250 248 249 249 249 248 248 248 248 249 248 249 250 253 256 260 263 267 269 270 272 273 275 279 282 286 287 288 289 292 293 296 299 300 300
251 251 251 251 251 252 251 252 251 250 249 249 248 248 248 249 250 250 250 250 251 253 256 259 262 266 269 271 272 273 276 279 282 284 285 287 288 290 292 295 297 299 299
250 250 250 250 251 252 253 253 253 251 250 249 248 247 247 248 249 250 251 252 253 255 257 259 262 265 268 270 272 273 276 279 281 283 285 285 286 288 290 292 295 296 297
250 250 250 251 251 251 252 252 253 253 251 250 250 248 248 248 249 250 251 252 254 256 257 259 262 264 267 269 272 273 275 278 281 282 283 284 285 286 287 290 292 294 296
249 249 250 250 251 250 249 250 251 253 252 250 250 249 248 247 248 249 250 251 254 256 257 259 261 263 266 269 272 274 276 277 280 281 282 282 284 284 287 288 291 293 295
247 248 249 249 250 249 248 249 250 251 252 249 248 248 247 247 248 249 250 252 254 255 257 259 261 263 265 268 270 273 275 277 278 280 281 282 284 284 286 289 290 292 293
248 248 249 248 248 248 248 247 248 248 249 247 246 247 247 248 249 251 252 253 254 256 257 259 261 262 264 266 269 271 274 277 278 280 281 283 284 284 286 288 290 291 293
248 248 248 248 247 247 247 246 245 245 247 247 247 247 247 249 250 251 252 254 255 257 258 259 259 261 263 265 268 271 274 277 278 279 281 283 284 285 286 288 290 291 293
246 246 246 247 247 246 245 243 243 244 245 246 246 247 248 249 249 251 253 254 256 257 258 258 259 260 263 266 268 271 273 275 278 279 280 282 284 285 287 288 290 292 293
245 245 245 245 246 245 244 243 243 244 245 247 246 247 248 249 250 252 253 254 256 257 258 259 259 260 262 265 268 270 273 275 277 278 280 282 284 286 287 289 291 292 293
245 244 244 244 245 244 243 243 243 244 246 247 247 247 248 250 251 252 253 254 255 256 257 259 259 260 262 264 267 269 272 275 277 278 279 282 283 285 287 288 290 292 293
245 245 244 244 244 243 243 242 243 244 245 247 248 248 249 250 251 252 254 255 255 255 257 259 260 261 262 264 266 268 271 274 276 278 279 281 284 285 286 288 290 291 292
245 245 244 244 243 242 242 242 243 243 245 246 248 248 249 250 251 252 254 256 257 256 257 259 260 261 262 264 265 267 269 272 275 277 279 281 283 285 286 288 288 290 291
244 244 244 243 243 242 241 241 242 243 244 245 248 248 248 250 252 254 255 257 257 259 259 259 260 261 263 264 266 267 269 271 274 276 277 279 282 284 285 287 287 288 289
244 243 243 244 244 242 239 239 240 241 243 245 247 249 249 251 253 254 255 257 258 260 261 261 261 262 264 265 266 268 269 272 274 275 277 278 280 283 284 286 287 287 288
243 243 242 243 243 241 238 238 240 241 241 244 246 249 250 252 253 255 257 258 259 260 262 263 264 263 264 266 266 268 271 273 274 276 278 279 281 283 284 285 287 288 288
241 241 241 243 242 240 237 238 240 241 242 244 246 249 252 254 255 256 257 258 260 261 262 263 264 265 265 266 267 268 271 273 276 277 279 281 282 284 285 285 287 289 289
240 240 241 241 240 239 237 237 239 241 242 244 246 249 253 254 254 255 256 257 259 261 262 264 264 265 266 267 268 269 271 274 277 278 280 281 282 284 286 286 287 288 288
Height
5857 5857 5858 5858 5858 5859 5859 5860 5860 5861 5861 5862 5862 5862 5863 5863 5863 5863 5863 5863 5863 5863 5863 5863 5863 5863 5863 5863 5863 5862 5862 5861 5861 5860 5859 5859 5858 5857 5856 5855 5854 5853 5852
5854 5855 5855 5856 5856 5857 5857 5858 5858 5859 5860 5860 5861 5861 5861 5861 5861 5862 5862 5862 5862 5862 5862 5862 5862 5862 5862 5862 5861 5861 5860 5860 5859 5859 5858 5857 5857 5856 5855 5854 5853 5852 5850
5852 5852 5853 5853 5854 5855 5855 5856 5856 5857 5858 5858 5859 5859 5859 5860 5860 5860 5860 5861 5861 5861 5861 5861 5861 5861 5861 5861 5860 5860 5859 5859 5858 5857 5857 5856 5855 5854 5853 5852 5851 5850 5849
5848 5849 5850 5850 5851 5852 5852 5853 5854 5854 5855 5856 5856 5857 5857 5858 5858 5858 5858 5859 5859 5859 5859 5859 5860 5860 5860 5859 5859 5859 5858 5857 5857 5856 5855 5854 5854 5853 5852 5850 5849 5848 5847
5845 5845 5846 5847 5848 5848 5849 5850 5851 5851 5852 5853 5854 5854 5855 5855 5856 5856 5856 5857 5857 5857 5857 5858 5858 5858 5858 5858 5857 5857 5856 5856 5855 5854 5853 5852 5852 5850 5849 5848 5847 5846 5845
5840 5841 5842 5843 5844 5844 5845 5846 5847 5848 5849 5849 5850 5851 5852 5852 5853 5853 5854 5854 5855 5855 5855 5855 5856 5856 5856 5855 5855 5855 5854 5854 5853 5852 5851 5850 5849 5848 5847 5846 5845 5843 5842
5835 5836 5837 5838 5839 5840 5841 5842 5843 5844 5845 5846 5847 5847 5848 5849 5849 5850 5851 5851 5852 5852 5852 5853 5853 5853 5853 5853 5852 5852 5852 5851 5850 5850 5849 5848 5847 5846 5845 5843 5842 5841 5839
5830 5831 5832 5833 5834 5835 5836 5837 5838 5839 5840 5841 5842 5843 5844 5845 5846 5846 5847 5848 5848 5849 5849 5850 5850 5850 5850 5850 5850 5849 5849 5849 5848 5847 5846 5845 5844 5843 5842 5840 5839 5837 5836
5824 5825 5826 5827 5828 5829 5830 5831 5832 5833 5835 5836 5837 5838 5839 5840 5841 5842 5843 5844 5845 5845 5846 5846 5847 5847 5847 5847 5847 5846 5846 5845 5844 5844 5843 5842 5840 5839 5838 5837 5835 5834 5832
5817 5818 5819 5821 5822 5823 5824 5825 5826 5827 5829 5830 5832 5833 5834 5835 5836 5837 5838 5839 5840 5841 5842 5842 5843 5843 5843 5843 5843 5842 5842 5841 5841 5840 5839 5838 5837 5836 5834 5833 5831 5830 5828
5809 5811 5812 5814 5815 5816 5817 5818 5820 5821 5823 5824 5825 5827 5828 5830 5831 5832 5833 5834 5835 5836 5837 5838 5838 5839 5839 5839 5838 5838 5838 5837 5837 5836 5835 5834 5833 5832 5830 5829 5827 5825 5824
5802 5804 5805 5806 5807 5808 5810 5811 5812 5814 5816 5817 5819 5820 5822 5823 5825 5826 5827 5829 5830 5831 5832 5833 5833 5834 5834 5834 5834 5834 5833 5833 5832 5832 5831 5830 5829 5827 5826 5824 5822 5821 5819
5794 5796 5797 5799 5800 5801 5802 5803 5805 5807 5808 5810 5811 5813 5815 5817 5818 5820 5821 5822 5824 5825 5826 5827 5828 5829 5829 5829 5829 5829 5829 5828 5828 5827 5826 5825 5824 5822 5821 5819 5818 5816 5814
5785 5787 5789 5791 5792 5793 5794 5796 5797 5799 5801 5803 5805 5806 5808 5810 5812 5814 5815 5817 5818 5819 5820 5821 5822 5823 5824 5824 5824 5824 5823 5823 5822 5822 5821 5820 5818 5817 5815 5814 5812 5810 5808
5776 5778 5780 5782 5784 5785 5787 5788 5790 5792 5794 5796 5798 5800 5802 5804 5805 5807 5809 5810 5811 5813 5814 5815 5815 5816 5817 5818 5818 5818 5818 5817 5817 5816 5815 5814 5812 5811 5810 5808 5806 5804 5802
5766 5769 5771 5773 5775 5777 5779 5781 5783 5785 5787 5789 5791 5793 5795 5797 5798 5800 5802 5803 5805 5806 5807 5808 5809 5809 5810 5811 5812 5812 5811 5811 5810 5810 5809 5808 5806 5805 5803 5801 5800 5797 5795
5756 5758 5761 5764 5766 5769 5771 5773 5775 5777 5780 5782 5784 5786 5788 5789 5791 5793 5794 5796 5797 5799 5800 5801 5801 5802 5803 5804 5805 5805 5805 5804 5804 5803 5802 5801 5800 5798 5797 5795 5793 5791 5788
5744 5748 5751 5754 5756 5759 5762 5765 5767 5770 5772 5774 5776 5778 5780 5782 5784 5785 5787 5788 5790 5791 5792 5793 5794 5795 5796 5797 5797 5798 5797 5797 5797 5796 5795 5794 5793 5791 5790 5788 5786 5783 5781
5732 5736 5740 5743 5746 5750 5753 5756 5759 5761 5764 5766 5768 5770 5772 5774 5776 5777 5779 5780 5782 5783 5784 5785 5786 5788 5789 5789 5790 5790 5790 5790 5789 5789 5788 5787 5786 5784 5782 5780 5778 5776 5773
5721 5724 5728 5732 5735 5739 5742 5746 5749 5752 5755 5757 5760 5762 5763 5766 5767 5769 5771 5772 5774 5775 5776 5777 5778 5779 5780 5781 5781 5782 5782 5782 5781 5781 5780 5779 5778 5776 5774 5772 5769 5767 5764
5710 5713 5716 5720 5724 5727 5731 5736 5739 5743 5746 5749 5751 5753 5755 5757 5759 5761 5762 5764 5765 5766 5768 5769 5770 5771 5772 5772 5773 5773 5774 5774 5773 5773 5772 5771 5769 5767 5765 5763 5760 5757 5755
5698 5701 5705 5708 5712 5715 5720 5725 5729 5733 5736 5739 5742 5744 5746 5748 5750 5752 5754 5755 5756 5758 5759 5760 5761 5762 5762 5763 5764 5764 5765 5766 5765 5764 5763 5762 5760 5758 5756 5753 5750 5747 5745
5687 5690 5694 5697 5700 5704 5708 5713 5718 5722 5726 5729 5732 5735 5737 5739 5741 5743 5745 5746 5747 5748 5750 5751 5752 5753 5754 5754 5754 5755 5756 5756 5756 5756 5754 5752 5750 5748 5746 5743 5740 5737 5734
5676 5679 5683 5686 5689 5693 5697 5702 5707 5712 5716 5720 5723 5725 5727 5729 5732 5734 5735 5736 5738 5739 5740 5742 5743 5744 5744 5744 5745 5745 5746 5746 5746 5746 5745 5742 5740 5738 5736 5733 5730 5727 5724
5665 5668 5672 5675 5678 5682 5687 5692 5697 5702 5706 5709 5712 5715 5718 5720 5722 5724 5726 5727 5728 5729 5731 5732 5733 5733 5734 5734 5735 5735 5735 5735 5734 5734 5734 5733 5730 5728 5725 5722 5720 5717 5713
5653 5657 5661 5664 5668 5672 5677 5682 5687 5692 5695 5699 5702 5705 5708 5710 5712 5714 5715 5717 5718 5719 5721 5722 5722 5723 5723 5724 5724 5725 5725 5724 5724 5723 5723 5722 5720 5718 5715 5712 5709 5706 5703